Back to catalog

COSMOS 886 DEB

AliveLEO
NORAD 9655·DEBRIS·🇷🇺 Russia

Launched Dec 27, 1976 from Baikonur Cosmodrome

Loading…

Next Passes (next 24 hours)

TLE

FreshSource: Space-Track

Epoch: Sep 14, 2026, 14:29 UTC

1 09655U 76126M   26257.60410176  .00004145  00000-0  73741-3 0  9993
2 09655  65.7846 215.5358 0639424  46.1399 319.0702 13.84034123401806

Track COSMOS 886 DEB in real time with AllMySat

Download on the App Store